Content
SEND FEEDBACK

Daily
Averages
Monthly
Summary
United States of America

WINNSBORO, SOUTH CAROLINA


Home > North America > United States > South Carolina
Elevation: 558 feet     Latitude: 34 57N     Longitude: 081 07W

WEATHER
 
SELECT A DAY
Number of Records: 160,325;   Date Range: 10/15/98 - 10/21/14
 
SHARE

PRINT THIS DATA

[ ← Previous Day ]
WEATHER ALMANAC - JANUARY 31, 2013
[ Next Day → ]
[ °C ]   °F
Weather ElementAverageHighLow
Temperature49.2 °F54 °F (12:53 am)42.1 °F (7:53 am)
Dewpoint29.1 °F50 °F (12:30 am)16 °F (2:53 pm)
Humidity49.3 %88 % (12:30 am)23 % (2:53 pm)
Barometer29.92 in30.17 in (11:53 pm)29.69 in (12:30 am)
Wind Speed14.9 mph29.9 mph (2:53 am)
Wind Gust40.3 mph (3:00 am)
Weather ElementAverage
Visibility10 mi
Wind DirectionW (266.2 °)

Weather ElementTotal
Precipitation---
Heating Degree Days17 (Base 65)
Averaged from 26 records on January 31, 2013
WEATHER CONDITIONS BREAKOUT
WIND DIRECTION BREAKOUT
WEATHER BY HOUR - JANUARY 31, 2013
[ °C ]   °F
Local TimeTemperatureDewpointHumidityBarometerVisibilityWind DirectionWind SpeedGust SpeedPrecipitationEventsConditions
12:30 AM53.6 °F50.0 °F88 %29.69 in10.0 miWSW (250°)10.4 mphOvercast
12:53 AM54.0 °F48.0 °F80 %29.70 in10.0 miWSW (250°)17.3 mph25.3 mphOvercast
1:23 AM53.6 °F46.4 °F77 %29.71 in10.0 miWSW (250°)19.6 mph25.3 mphOvercast
1:53 AM53.1 °F46.0 °F77 %29.70 in10.0 miWSW (250°)9.2 mph20.7 mphOvercast
2:34 AM53.6 °F44.6 °F72 %29.73 in10.0 miWSW (250°)12.7 mph23.0 mphOvercast
2:53 AM52.0 °F39.0 °F61 %29.75 in10.0 miWest (270°)29.9 mph39.1 mphOvercast
3:00 AM51.8 °F37.4 °F58 %29.76 in10.0 miWest (280°)24.2 mph40.3 mphOvercast
3:53 AM48.9 °F35.1 °F59 %29.80 in10.0 miWest (270°)24.2 mph31.1 mphClear
4:53 AM46.9 °F30.9 °F54 %29.82 in10.0 miWest (270°)18.4 mph33.4 mphClear
5:53 AM45.0 °F30.0 °F56 %29.85 in10.0 miWest (270°)16.1 mph28.8 mphClear
6:53 AM43.0 °F28.0 °F56 %29.91 in10.0 miWest (270°)16.1 mph25.3 mphClear
7:53 AM42.1 °F26.1 °F53 %29.95 in10.0 miWest (280°)12.7 mph23.0 mphClear
8:53 AM43.0 °F25.0 °F49 %29.99 in10.0 miWest (280°)16.1 mph26.5 mphClear
9:53 AM46.0 °F25.0 °F44 %30.00 in10.0 miWest (280°)13.8 mph19.6 mphClear
10:53 AM48.0 °F21.9 °F36 %30.02 in10.0 miWest (280°)13.8 mph20.7 mphClear
11:53 AM50.0 °F19.9 °F31 %30.01 in10.0 miWest (270°)16.1 mph21.9 mphClear
12:53 PM51.1 °F19.0 °F28 %30.01 in10.0 miWNW (290°)12.7 mph25.3 mphClear
1:53 PM53.1 °F18.0 °F25 %30.00 in10.0 miWest (280°)20.7 mph28.8 mphClear
2:53 PM53.1 °F16.0 °F23 %30.01 in10.0 miWest (280°)19.6 mph31.1 mphClear
3:53 PM53.1 °F17.1 °F24 %30.03 in10.0 miWest (270°)20.7 mph31.1 mphClear
4:53 PM53.1 °F19.9 °F27 %30.04 in10.0 miWNW (300°)9.2 mph21.9 mphClear
5:53 PM50.0 °F19.9 °F31 %30.06 in10.0 miWest (280°)10.4 mphClear
6:53 PM46.9 °F21.9 °F37 %30.09 in10.0 miSW (230°)5.8 mphClear
7:53 PM45.0 °F24.1 °F44 %30.10 in10.0 miWSW (240°)5.8 mphClear
8:53 PM45.0 °F24.1 °F44 %30.12 in10.0 miWSW (240°)6.9 mphClear
11:53 PM43.0 °F24.1 °F47 %30.17 in10.0 miWSW (240°)5.8 mphClear
Hourly data recorded from KCUB, located miles away from Winnsboro, South Carolina







STORIES FROM OUR PARTNERS